| time (UTC) | temp F | wind direction | speed knots | gust knots | rain 1hr in | rain 24hr in | rain mn in | humidity % | barometer mb |
| 20260504031003 | 48 | 217 | 0.9 | 2.6 | 0.00 | 0.00 | 0.00 | 59 | 1015.3 |
| 20260504030503 | 48 | 214 | 0.9 | 2.6 | 0.00 | 0.00 | 0.00 | 58 | 1015.4 |
| 20260504030003 | 47 | 188 | 0.0 | 1.7 | 0.00 | 0.00 | 0.00 | 61 | 1015.2 |
| 20260504025718 | 47 | 188 | 0.9 | 1.7 | 0.00 | 0.00 | 0.00 | 60 | 1015.4 |
| 20260504025003 | 48 | 210 | 0.9 | 1.7 | 0.00 | 0.00 | 0.00 | 59 | 1015.6 |
| 20260504024503 | 49 | 213 | 0.9 | 1.7 | 0.00 | 0.00 | 0.00 | 56 | 1015.4 |
| 20260504024003 | 49 | 211 | 1.7 | 2.6 | 0.00 | 0.00 | 0.00 | 56 | 1015.7 |
| 20260504023503 | 48 | 208 | 0.9 | 4.3 | 0.00 | 0.00 | 0.00 | 57 | 1015.6 |
| 20260504023216 | 49 | 211 | 2.6 | 4.3 | 0.00 | 0.00 | 0.00 | 57 | 1015.7 |
| 20260504022718 | 49 | 0 | 0.0 | 0.0 | 0.00 | 0.00 | 0.00 | 57 | 1015.7 |
| 20260504022003 | 50 | 221 | 0.9 | 2.6 | 0.00 | 0.00 | 0.00 | 55 | 1015.6 |
| 20260504021503 | 49 | 216 | 0.0 | 1.7 | 0.00 | 0.00 | 0.00 | 55 | 1015.8 |
| 20260504021003 | 50 | 213 | 0.0 | 2.6 | 0.00 | 0.00 | 0.00 | 54 | 1015.7 |
| 20260504020503 | 50 | 213 | 1.7 | 2.6 | 0.00 | 0.00 | 0.00 | 53 | 1015.4 |
| 20260504020003 | 50 | 222 | 0.9 | 1.7 | 0.00 | 0.00 | 0.00 | 53 | 1015.6 |
| 20260504015503 | 50 | 222 | 0.9 | 1.7 | 0.00 | 0.00 | 0.00 | 53 | 1015.4 |
| 20260504015003 | 50 | 221 | 0.9 | 1.7 | 0.00 | 0.00 | 0.00 | 52 | 1015.7 |
| 20260504014503 | 50 | 215 | 0.9 | 1.7 | 0.00 | 0.00 | 0.00 | 52 | 1015.6 |
| 20260504014218 | 51 | 215 | 0.9 | 1.7 | 0.00 | 0.00 | 0.00 | 52 | 1015.7 |
| 20260504013503 | 51 | 219 | 1.7 | 2.6 | 0.00 | 0.00 | 0.00 | 51 | 1015.4 |
| 20260504013003 | 51 | 214 | 0.9 | 2.6 | 0.00 | 0.00 | 0.00 | 50 | 1015.3 |
| 20260504012717 | 51 | 219 | 1.7 | 2.6 | 0.00 | 0.00 | 0.00 | 50 | 1015.6 |
| 20260504012218 | 52 | 225 | 1.7 | 2.6 | 0.00 | 0.00 | 0.00 | 50 | 1015.6 |
| 20260504011717 | 52 | 223 | 1.7 | 2.6 | 0.00 | 0.00 | 0.00 | 49 | 1015.6 |
| 20260504011003 | 52 | 229 | 0.9 | 2.6 | 0.00 | 0.00 | 0.00 | 49 | 1015.6 |
| 20260504010503 | 52 | 228 | 1.7 | 2.6 | 0.00 | 0.00 | 0.00 | 48 | 1015.4 |
| 20260504010003 | 52 | 224 | 0.9 | 1.7 | 0.00 | 0.00 | 0.00 | 49 | 1015.6 |
| 20260504005717 | 52 | 219 | 0.9 | 1.7 | 0.00 | 0.00 | 0.00 | 49 | 1015.3 |
| 20260504005003 | 53 | 225 | 1.7 | 4.3 | 0.00 | 0.00 | 0.00 | 48 | 1015.4 |
| 20260504004503 | 53 | 227 | 1.7 | 2.6 | 0.00 | 0.00 | 0.00 | 48 | 1015.4 |
| 20260504004003 | 53 | 246 | 0.9 | 4.3 | 0.00 | 0.00 | 0.00 | 48 | 1015.3 |
| 20260504003503 | 53 | 220 | 1.7 | 7.0 | 0.00 | 0.00 | 0.00 | 47 | 1015.2 |
| 20260504003003 | 53 | 232 | 2.6 | 6.1 | 0.00 | 0.00 | 0.00 | 46 | 1015.3 |
| 20260504002503 | 54 | 240 | 1.7 | 10.4 | 0.00 | 0.00 | 0.00 | 46 | 1015.4 |
| 20260504002003 | 54 | 261 | 3.5 | 7.0 | 0.00 | 0.00 | 0.00 | 47 | 1015.3 |
| 20260504001503 | 54 | 272 | 5.2 | 10.4 | 0.00 | 0.00 | 0.00 | 46 | 1015.3 |
| 20260504001218 | 54 | 270 | 4.3 | 6.1 | 0.00 | 0.00 | 0.00 | 46 | 1015.4 |
| 20260504000503 | 54 | 254 | 1.7 | 7.0 | 0.00 | 0.00 | 0.00 | 46 | 1015.2 |
| 20260504000003 | 55 | 233 | 4.3 | 8.7 | 0.00 | 0.00 | 0.00 | 44 | 1015.1 |
| 20260503235503 | 55 | 233 | 2.6 | 4.3 | 0.00 | 0.00 | 0.00 | 45 | 1015.1 |
| 20260503235217 | 55 | 224 | 1.7 | 6.1 | 0.00 | 0.00 | 0.00 | 45 | 1015.2 |
| 20260503234716 | 55 | 240 | 6.1 | 8.7 | 0.00 | 0.00 | 0.00 | 44 | 1015.7 |
| 20260503234003 | 55 | 232 | 2.6 | 8.7 | 0.00 | 0.00 | 0.00 | 43 | 1015.0 |
| 20260503233504 | 56 | 258 | 5.2 | 10.4 | 0.00 | 0.00 | 0.00 | 43 | 1015.4 |
| 20260503233003 | 56 | 216 | 2.6 | 6.1 | 0.00 | 0.00 | 0.00 | 43 | 1015.3 |
| 20260503232503 | 56 | 236 | 4.3 | 10.4 | 0.00 | 0.00 | 0.00 | 43 | 1015.2 |
| 20260503232217 | 56 | 228 | 5.2 | 13.0 | 0.00 | 0.00 | 0.00 | 42 | 1015.3 |
| 20260503231503 | 56 | 239 | 7.0 | 12.2 | 0.00 | 0.00 | 0.00 | 42 | 1015.3 |
| 20260503231003 | 56 | 228 | 7.0 | 10.4 | 0.00 | 0.00 | 0.00 | 42 | 1015.3 |
| 20260503230503 | 56 | 218 | 2.6 | 20.9 | 0.00 | 0.00 | 0.00 | 43 | 1015.3 |
| 20260503230003 | 56 | 262 | 5.2 | 10.4 | 0.00 | 0.00 | 0.00 | 42 | 1015.4 |
| 20260503225503 | 56 | 229 | 7.8 | 14.8 | 0.00 | 0.00 | 0.00 | 42 | 1015.4 |
| 20260503225003 | 56 | 240 | 11.3 | 20.9 | 0.00 | 0.00 | 0.00 | 41 | 1015.3 |
| 20260503224503 | 56 | 221 | 5.2 | 18.2 | 0.00 | 0.00 | 0.00 | 41 | 1015.3 |
| 20260503224003 | 57 | 252 | 11.3 | 20.9 | 0.00 | 0.00 | 0.00 | 41 | 1015.7 |
| 20260503223503 | 57 | 206 | 7.0 | 16.5 | 0.00 | 0.00 | 0.00 | 42 | 1015.6 |
| 20260503223003 | 57 | 232 | 5.2 | 10.4 | 0.00 | 0.00 | 0.00 | 41 | 1015.6 |
| 20260503222503 | 57 | 245 | 2.6 | 12.2 | 0.00 | 0.00 | 0.00 | 41 | 1015.4 |
| 20260503222003 | 57 | 218 | 6.1 | 13.0 | 0.00 | 0.00 | 0.00 | 40 | 1015.4 |
| 20260503221503 | 58 | 271 | 8.7 | 16.5 | 0.00 | 0.00 | 0.00 | 40 | 1015.7 |
| 20260503221003 | 58 | 202 | 5.2 | 12.2 | 0.00 | 0.00 | 0.00 | 41 | 1015.7 |
| 20260503220503 | 57 | 211 | 8.7 | 14.8 | 0.00 | 0.00 | 0.00 | 41 | 1015.6 |
| 20260503220003 | 57 | 210 | 8.7 | 14.8 | 0.00 | 0.00 | 0.00 | 42 | 1015.7 |
| 20260503215504 | 58 | 266 | 9.6 | 14.8 | 0.00 | 0.00 | 0.00 | 39 | 1015.4 |
| 20260503215003 | 58 | 245 | 11.3 | 18.2 | 0.00 | 0.00 | 0.00 | 39 | 1015.4 |
| 20260503214503 | 58 | 264 | 3.5 | 8.7 | 0.00 | 0.00 | 0.00 | 40 | 1015.6 |
| 20260503214003 | 57 | 251 | 6.1 | 8.7 | 0.00 | 0.00 | 0.00 | 40 | 1015.6 |
| 20260503213503 | 57 | 208 | 9.6 | 16.5 | 0.00 | 0.00 | 0.00 | 41 | 1015.6 |
| 20260503213003 | 58 | 217 | 13.9 | 16.5 | 0.00 | 0.00 | 0.00 | 40 | 1015.1 |
| 20260503212718 | 58 | 207 | 7.8 | 13.0 | 0.00 | 0.00 | 0.00 | 41 | 1015.2 |
| 20260503212003 | 59 | 202 | 4.3 | 7.0 | 0.00 | 0.00 | 0.00 | 39 | 1015.3 |
| 20260503211718 | 58 | 209 | 6.1 | 8.7 | 0.00 | 0.00 | 0.00 | 40 | 1015.3 |
| 20260503211003 | 57 | 244 | 6.1 | 13.0 | 0.00 | 0.00 | 0.00 | 41 | 1015.3 |
| 20260503210503 | 58 | 221 | 12.2 | 19.1 | 0.00 | 0.00 | 0.00 | 42 | 1015.6 |
| 20260503210216 | 58 | 218 | 5.2 | 10.4 | 0.00 | 0.00 | 0.00 | 40 | 1015.4 |
| 20260503205503 | 58 | 225 | 6.1 | 23.5 | 0.00 | 0.00 | 0.00 | 39 | 1015.4 |
| 20260503205003 | 58 | 220 | 12.2 | 19.1 | 0.00 | 0.00 | 0.00 | 41 | 1015.6 |
| 20260503204503 | 57 | 240 | 7.0 | 14.8 | 0.00 | 0.00 | 0.00 | 41 | 1015.6 |
| 20260503204003 | 57 | 217 | 6.1 | 22.6 | 0.00 | 0.00 | 0.00 | 38 | 1015.7 |
| 20260503203504 | 59 | 223 | 7.8 | 10.4 | 0.00 | 0.00 | 0.00 | 40 | 1015.6 |
| 20260503203003 | 58 | 269 | 5.2 | 10.4 | 0.00 | 0.00 | 0.00 | 39 | 1016.1 |
| 20260503202717 | 58 | 260 | 6.1 | 12.2 | 0.00 | 0.00 | 0.00 | 40 | 1015.8 |
| 20260503202003 | 59 | 259 | 10.4 | 13.0 | 0.00 | 0.00 | 0.00 | 39 | 1015.9 |
| 20260503201503 | 58 | 240 | 5.2 | 8.7 | 0.00 | 0.00 | 0.00 | 42 | 1015.8 |
| 20260503201003 | 58 | 279 | 3.5 | 10.4 | 0.00 | 0.00 | 0.00 | 41 | 1016.1 |
| 20260503200503 | 57 | 230 | 9.6 | 13.0 | 0.00 | 0.00 | 0.00 | 41 | 1016.1 |
| 20260503200003 | 58 | 235 | 7.8 | 13.0 | 0.00 | 0.00 | 0.00 | 40 | 1016.2 |
| 20260503195717 | 58 | 225 | 7.0 | 13.0 | 0.00 | 0.00 | 0.00 | 41 | 1016.0 |
| 20260503195003 | 57 | 303 | 7.8 | 10.4 | 0.00 | 0.00 | 0.00 | 41 | 1016.2 |
| 20260503194503 | 59 | 205 | 9.6 | 13.0 | 0.00 | 0.00 | 0.00 | 40 | 1016.3 |
| 20260503194003 | 58 | 286 | 7.8 | 16.5 | 0.00 | 0.00 | 0.00 | 40 | 1016.4 |
| 20260503193503 | 58 | 173 | 3.5 | 10.4 | 0.00 | 0.00 | 0.00 | 38 | 1016.4 |
| 20260503193218 | 56 | 200 | 6.1 | 10.4 | 0.00 | 0.00 | 0.00 | 41 | 1016.4 |
| 20260503192503 | 56 | 237 | 9.6 | 16.5 | 0.00 | 0.00 | 0.00 | 43 | 1016.5 |
| 20260503192003 | 58 | 224 | 6.1 | 7.0 | 0.00 | 0.00 | 0.00 | 41 | 1016.6 |
| 20260503191503 | 58 | 240 | 4.3 | 16.5 | 0.00 | 0.00 | 0.00 | 41 | 1016.6 |
| 20260503191003 | 58 | 201 | 2.6 | 14.8 | 0.00 | 0.00 | 0.00 | 43 | 1016.7 |
| 20260503190503 | 57 | 240 | 10.4 | 18.2 | 0.00 | 0.00 | 0.00 | 40 | 1017.1 |
| 20260503190003 | 57 | 224 | 7.0 | 12.2 | 0.00 | 0.00 | 0.00 | 42 | 1017.1 |
| 20260503185503 | 56 | 300 | 7.8 | 16.5 | 0.00 | 0.00 | 0.00 | 42 | 1016.9 |
| 20260503185003 | 56 | 294 | 7.8 | 12.2 | 0.00 | 0.00 | 0.00 | 42 | 1016.9 |
| 20260503184503 | 56 | 251 | 7.8 | 12.2 | 0.00 | 0.00 | 0.00 | 42 | 1017.0 |
| 20260503184004 | 56 | 221 | 13.0 | 19.1 | 0.00 | 0.00 | 0.00 | 44 | 1017.2 |
| 20260503183716 | 54 | 274 | 6.1 | 16.5 | 0.00 | 0.00 | 0.00 | 44 | 1017.3 |
| 20260503183003 | 55 | 272 | 7.0 | 20.9 | 0.00 | 0.00 | 0.00 | 43 | 1017.3 |
| 20260503182503 | 57 | 298 | 9.6 | 13.0 | 0.00 | 0.00 | 0.00 | 40 | 1017.4 |
| 20260503182005 | 55 | 236 | 8.7 | 13.0 | 0.00 | 0.00 | 0.00 | 44 | 1017.4 |
| 20260503181504 | 55 | 252 | 9.6 | 16.5 | 0.00 | 0.00 | 0.00 | 44 | 1017.5 |
| 20260503181003 | 54 | 226 | 10.4 | 18.2 | 0.00 | 0.00 | 0.00 | 43 | 1017.5 |
| 20260503180503 | 56 | 224 | 8.7 | 19.1 | 0.00 | 0.00 | 0.00 | 41 | 1017.6 |
| 20260503180003 | 55 | 223 | 12.2 | 18.2 | 0.00 | 0.00 | 0.00 | 45 | 1017.6 |
| 20260503175503 | 56 | 220 | 6.1 | 13.0 | 0.00 | 0.00 | 0.00 | 41 | 1017.6 |
| 20260503175004 | 55 | 249 | 7.8 | 18.2 | 0.00 | 0.00 | 0.00 | 42 | 1017.7 |
| 20260503174718 | 55 | 269 | 7.0 | 18.2 | 0.00 | 0.00 | 0.00 | 42 | 1017.8 |
| 20260503174003 | 53 | 237 | 10.4 | 16.5 | 0.00 | 0.00 | 0.00 | 44 | 1017.7 |
| 20260503173503 | 53 | 263 | 8.7 | 18.2 | 0.00 | 0.00 | 0.00 | 46 | 1017.7 |
| 20260503173003 | 53 | 227 | 10.4 | 14.8 | 0.00 | 0.00 | 0.00 | 44 | 1017.9 |
| 20260503172503 | 55 | 205 | 10.4 | 19.1 | 0.00 | 0.00 | 0.00 | 45 | 1017.8 |
| 20260503172003 | 54 | 287 | 6.1 | 16.5 | 0.00 | 0.00 | 0.00 | 45 | 1017.8 |
| 20260503171718 | 53 | 261 | 9.6 | 16.5 | 0.00 | 0.00 | 0.00 | 43 | 1018.0 |
| 20260503171217 | 55 | 253 | 8.7 | 12.2 | 0.00 | 0.00 | 0.00 | 43 | 1018.2 |
| 20260503170718 | 54 | 287 | 3.5 | 14.8 | 0.00 | 0.00 | 0.00 | 42 | 1018.0 |
| 20260503151003 | 51 | 258 | 6.1 | 10.4 | 0.00 | 0.01 | 0.00 | 43 | 1019.0 |
| 20260503150717 | 50 | 201 | 5.2 | 20.9 | 0.00 | 0.01 | 0.00 | 46 | 1019.1 |
| 20260503131003 | 43 | 217 | 3.5 | 12.2 | 0.00 | 0.01 | 0.00 | 72 | 1019.6 |
| 20260503130503 | 43 | 247 | 5.2 | 12.2 | 0.00 | 0.01 | 0.00 | 72 | 1019.3 |
| 20260503130218 | 43 | 244 | 7.0 | 10.4 | 0.00 | 0.01 | 0.00 | 73 | 1019.4 |
| 20260503110503 | 33 | 206 | 1.7 | 4.3 | 0.00 | 0.01 | 0.00 | 97 | 1018.4 |
| 20260503110217 | 33 | 217 | 1.7 | 2.6 | 0.00 | 0.01 | 0.00 | 97 | 1018.5 |
| 20260503090503 | 31 | 206 | 0.0 | 1.7 | 0.00 | 0.01 | 0.00 | 96 | 1017.9 |
| 20260503081503 | 32 | 0 | 0.0 | 0.0 | 0.00 | 0.01 | 0.00 | 94 | 1018.0 |
| 20260503081003 | 32 | 0 | 0.0 | 0.0 | 0.00 | 0.01 | 0.00 | 94 | 1017.9 |
| 20260503080503 | 32 | 0 | 0.0 | 0.0 | 0.00 | 0.01 | 0.00 | 94 | 1017.8 |
| 20260503080217 | 32 | 0 | 0.0 | 0.0 | 0.00 | 0.01 | 0.00 | 94 | 1017.8 |
| 20260503072504 | 33 | 0 | 0.0 | 0.0 | 0.00 | 0.01 | 0.00 | 93 | 1017.9 |
| 20260503072003 | 33 | 200 | 0.9 | 1.7 | 0.00 | 0.01 | 0.00 | 93 | 1017.6 |
| 20260503071503 | 33 | 203 | 0.0 | 1.7 | 0.00 | 0.01 | 0.00 | 93 | 1017.7 |
| 20260503071004 | 33 | 203 | 0.9 | 1.7 | 0.00 | 0.01 | 0.00 | 93 | 1017.5 |
| 20260503070503 | 33 | 0 | 0.0 | 0.0 | 0.00 | 0.01 | 0.00 | 93 | 1017.5 |
| 20260503060217 | 34 | 258 | 0.9 | 1.7 | 0.00 | 0.01 | 0.00 | 89 | 1017.7 |
| 20260503055003 | 34 | 202 | 0.0 | 1.7 | 0.00 | 0.01 | 0.00 | 89 | 1017.7 |
| 20260503054503 | 34 | 242 | 0.0 | 1.7 | 0.00 | 0.01 | 0.00 | 89 | 1017.8 |
| 20260503054003 | 34 | 221 | 0.9 | 1.7 | 0.00 | 0.01 | 0.00 | 89 | 1017.8 |
| 20260503053718 | 34 | 0 | 0.0 | 0.0 | 0.00 | 0.01 | 0.00 | 90 | 1017.8 |
| 20260503053004 | 34 | 213 | 0.9 | 1.7 | 0.00 | 0.01 | 0.00 | 90 | 1017.8 |
| 20260503052503 | 34 | 207 | 0.0 | 1.7 | 0.00 | 0.01 | 0.00 | 90 | 1018.2 |
| 20260503052003 | 34 | 212 | 0.0 | 1.7 | 0.00 | 0.01 | 0.00 | 90 | 1018.2 |
| 20260503051718 | 34 | 191 | 0.9 | 1.7 | 0.00 | 0.01 | 0.00 | 89 | 1017.9 |
| 20260503051003 | 34 | 207 | 0.0 | 1.7 | 0.00 | 0.01 | 0.00 | 90 | 1018.0 |
| 20260503050503 | 34 | 0 | 0.0 | 0.0 | 0.00 | 0.01 | 0.00 | 90 | 1017.9 |
| 20260503050003 | 34 | 195 | 0.9 | 2.6 | 0.00 | 0.01 | 0.00 | 90 | 1018.0 |
| 20260503045503 | 34 | 186 | 0.0 | 1.7 | 0.00 | 0.01 | 0.00 | 91 | 1018.3 |
| 20260503045003 | 34 | 0 | 0.0 | 0.0 | 0.00 | 0.01 | 0.00 | 91 | 1018.0 |
| 20260503044503 | 34 | 0 | 0.0 | 0.0 | 0.00 | 0.01 | 0.00 | 91 | 1018.3 |
| 20260503044003 | 33 | 0 | 0.0 | 0.0 | 0.00 | 0.01 | 0.00 | 90 | 1018.4 |
| 20260503043717 | 34 | 0 | 0.0 | 0.0 | 0.00 | 0.01 | 0.00 | 89 | 1018.3 |
| 20260503043218 | 34 | 0 | 0.0 | 0.0 | 0.00 | 0.01 | 0.00 | 89 | 1018.2 |
| 20260503042503 | 34 | 0 | 0.0 | 0.0 | 0.00 | 0.01 | 0.00 | 89 | 1018.3 |
| 20260503042003 | 34 | 0 | 0.0 | 0.0 | 0.00 | 0.01 | 0.00 | 89 | 1018.0 |
| 20260503041503 | 33 | 0 | 0.0 | 0.0 | 0.00 | 0.01 | 0.00 | 89 | 1018.2 |
| 20260503041003 | 33 | 0 | 0.0 | 0.0 | 0.00 | 0.01 | 0.00 | 90 | 1018.3 |
| 20260503040503 | 33 | 185 | 0.0 | 1.7 | 0.00 | 0.01 | 0.00 | 89 | 1018.3 |
| 20260503040003 | 33 | 0 | 0.0 | 0.0 | 0.00 | 0.01 | 0.00 | 89 | 1018.2 |
| 20260503035503 | 34 | 0 | 0.0 | 0.0 | 0.00 | 0.01 | 0.01 | 88 | 1018.2 |
| 20260503035003 | 34 | 33 | 0.0 | 1.7 | 0.00 | 0.01 | 0.01 | 88 | 1018.3 |
| 20260503034717 | 34 | 30 | 0.9 | 2.6 | 0.00 | 0.01 | 0.01 | 88 | 1018.3 |
| 20260503034218 | 35 | 244 | 0.9 | 1.7 | 0.00 | 0.01 | 0.01 | 86 | 1018.4 |
| 20260503033504 | 35 | 243 | 0.9 | 1.7 | 0.00 | 0.01 | 0.01 | 85 | 1018.2 |
| 20260503033003 | 35 | 0 | 0.0 | 0.0 | 0.00 | 0.01 | 0.01 | 85 | 1018.3 |
| 20260503032503 | 35 | 0 | 0.0 | 0.0 | 0.00 | 0.01 | 0.01 | 86 | 1018.2 |
| 20260503032218 | 35 | 0 | 0.0 | 0.0 | 0.00 | 0.01 | 0.01 | 86 | 1018.2 |
| 20260503031503 | 35 | 243 | 0.9 | 1.7 | 0.00 | 0.01 | 0.01 | 87 | 1018.0 |